TimeMDT,TemperatureF,Dew PointF,Humidity,Sea Level PressureIn,VisibilityMPH,Wind Direction,Wind SpeedMPH,Gust SpeedMPH,PrecipitationIn,Events,Conditions,WindDirDegrees,DateUTC
12:53 AM,60.1,43.0,53,29.94,10.0,ENE,4.6,-,N/A,,Clear,70,2012-09-01 06:53:00
1:53 AM,59.0,43.0,55,29.94,10.0,ENE,6.9,-,N/A,,Clear,70,2012-09-01 07:53:00
2:53 AM,57.0,44.1,62,29.94,10.0,ENE,6.9,-,N/A,,Clear,70,2012-09-01 08:53:00
3:53 AM,55.9,43.0,62,29.97,10.0,East,3.5,-,N/A,,Clear,90,2012-09-01 09:53:00
4:53 AM,57.9,43.0,58,29.98,10.0,ENE,4.6,-,N/A,,Clear,70,2012-09-01 10:53:00
5:53 AM,57.9,45.0,62,29.99,10.0,East,4.6,-,N/A,,Clear,80,2012-09-01 11:53:00
6:53 AM,59.0,45.0,60,30.01,10.0,East,4.6,-,N/A,,Mostly Cloudy,90,2012-09-01 12:53:00
7:53 AM,60.1,46.0,60,30.04,10.0,East,3.5,-,N/A,,Mostly Cloudy,90,2012-09-01 13:53:00
8:53 AM,64.0,46.9,54,30.06,10.0,Calm,Calm,-,N/A,,Mostly Cloudy,0,2012-09-01 14:53:00
9:53 AM,71.1,48.0,44,30.05,10.0,Calm,Calm,-,N/A,,Scattered Clouds,0,2012-09-01 15:53:00
10:53 AM,78.1,46.9,33,30.05,10.0,Calm,Calm,-,N/A,,Partly Cloudy,0,2012-09-01 16:53:00
11:53 AM,82.9,42.1,24,30.01,10.0,SSW,6.9,-,N/A,,Clear,210,2012-09-01 17:53:00
12:53 PM,88.0,43.0,21,30.00,10.0,SSW,15.0,23.0,N/A,,Scattered Clouds,200,2012-09-01 18:53:00
1:53 PM,88.0,43.0,21,29.97,10.0,SW,15.0,-,N/A,,Clear,220,2012-09-01 19:53:00
2:53 PM,87.1,43.0,21,29.96,10.0,SSW,13.8,-,N/A,,Clear,200,2012-09-01 20:53:00
3:53 PM,87.1,43.0,21,29.94,10.0,South,6.9,-,N/A,,Partly Cloudy,180,2012-09-01 21:53:00
4:53 PM,82.9,43.0,24,29.93,10.0,WNW,5.8,-,N/A,,Scattered Clouds,290,2012-09-01 22:53:00
5:16 PM,77.0,48.2,36,30.17,10.0,NNW,12.7,-,0.00,Rain,Light Rain,340,2012-09-01 23:16:00
5:53 PM,71.1,50.0,47,29.99,9.0,NNW,12.7,28.8,0.00,Rain,Light Rain,330,2012-09-01 23:53:00
6:03 PM,71.6,50.0,46,30.20,10.0,NNW,10.4,23.0,0.00,Thunderstorm,Overcast,330,2012-09-02 00:03:00
6:24 PM,68.0,55.4,64,30.27,7.0,SSW,17.3,28.8,0.01,Rain,Light Rain,200,2012-09-02 00:24:00
6:30 PM,64.4,57.2,77,30.29,4.0,South,9.2,-,0.02,Rain-Thunderstorm,Rain,170,2012-09-02 00:30:00
6:53 PM,63.0,59.0,87,30.14,5.0,SSW,10.4,-,0.07,Rain,Rain,210,2012-09-02 00:53:00
7:53 PM,61.0,57.9,90,30.17,6.0,East,4.6,-,0.18,Rain,Rain,100,2012-09-02 01:53:00
8:53 PM,61.0,55.9,83,30.13,9.0,East,19.6,26.5,0.10,Rain,Light Rain,80,2012-09-02 02:53:00
9:53 PM,60.1,55.9,86,30.09,10.0,ENE,9.2,-,0.02,,Mostly Cloudy,70,2012-09-02 03:53:00
10:53 PM,60.1,55.0,83,30.03,10.0,NNE,10.4,-,N/A,,Clear,30,2012-09-02 04:53:00
11:53 PM,59.0,55.0,87,30.02,10.0,Calm,Calm,-,N/A,,Clear,0,2012-09-02 05:53:00